Date,TemperatureHighF,TemperatureAvgF,TemperatureLowF,DewpointHighF,DewpointAvgF,DewpointLowF,HumidityHigh,HumidityAvg,HumidityLow,PressureMaxIn,PressureMinIn,WindSpeedMaxMPH,WindSpeedAvgMPH,GustSpeedMaxMPH,PrecipitationSumIn
2013-1-1,35,21,28,25,-23,-100,72,37,39,29.81,29.58,14,-322,31,0.00
2013-1-2,25,2,22,6,-89,-100,47,5,41,29.99,29.78,15,-864,21,0.00
2013-1-3,22,2,19,-2,-88,-100,39,4,30,30.02,29.87,9,-838,17,0.00
2013-1-4,-200,0,200,-100,-100,-100,0,0,100,29.87,29.66,0,-953,0,0.00
2013-1-5,37,6,33,16,-82,-100,50,6,36,30.16,29.68,10,-811,22,0.00
2013-1-6,41,16,31,26,-43,-100,75,30,55,30.12,29.82,10,-520,14,0.01
2013-1-7,35,30,20,27,23,16,89,78,67,30.31,29.84,5,1,10,0.00
2013-1-8,45,34,25,25,24,21,90,69,43,30.26,30.14,10,2,18,0.00
2013-1-9,43,34,21,33,26,18,88,73,55,30.31,29.86,10,2,21,0.00
2013-1-10,44,40,30,28,24,21,73,54,44,30.43,29.88,16,7,28,0.00
2013-1-11,39,32,24,37,26,20,95,79,63,30.42,30.14,2,0,6,0.08
2013-1-12,43,40,38,42,39,37,98,97,95,30.14,30.03,2,0,7,0.03
2013-1-13,50,45,40,49,44,39,99,98,93,30.05,29.87,3,1,10,0.00
2013-1-14,60,50,39,50,42,26,96,75,43,30.13,29.71,11,4,19,0.00
2013-1-15,41,36,30,27,24,21,78,64,52,30.22,30.13,3,0,5,0.00
2013-1-16,32,30,28,30,27,22,96,89,69,30.15,29.71,0,0,2,0.01
2013-1-17,40,32,26,33,24,3,96,74,35,30.01,29.71,8,2,17,0.31
2013-1-18,26,18,12,9,-4,-14,54,37,26,30.34,29.95,13,4,20,0.00
2013-1-19,45,35,19,29,18,4,68,51,38,30.27,29.77,14,3,22,0.09
2013-1-20,52,40,27,31,22,5,71,51,22,29.78,29.39,20,8,33,0.01
2013-1-21,27,23,19,18,4,-6,87,46,27,29.96,29.71,16,5,28,0.00
2013-1-22,25,19,11,18,6,-9,86,58,25,29.96,29.65,14,4,21,0.00
2013-1-23,11,7,2,-1,-11,-18,71,43,28,30.03,29.94,12,4,23,0.00
2013-1-24,15,7,-2,-9,-15,-18,46,36,25,30.08,29.92,14,9,29,0.00
2013-1-25,20,13,6,-3,-9,-10,50,37,26,30.16,29.96,12,7,23,0.00
2013-1-26,24,16,10,10,0,-11,83,53,26,30.09,29.90,12,4,27,0.00
2013-1-27,28,19,13,1,-4,-11,56,38,21,30.35,30.08,12,7,24,0.00
2013-1-28,28,21,13,22,6,-7,90,57,22,30.34,29.94,4,1,7,0.00
2013-1-29,36,29,23,30,25,20,93,85,72,30.10,29.93,2,0,6,0.11
2013-1-30,60,45,32,57,44,30,100,96,86,30.06,29.35,5,1,18,0.23
2013-1-31,63,47,31,58,35,8,97,64,35,29.42,28.80,22,12,43,0.19
2013-2-1,32,27,18,11,6,2,58,42,28,29.95,29.42,16,8,29,0.00
2013-2-2,29,22,13,11,5,0,67,48,30,30.12,29.94,6,2,13,0.00
2013-2-3,28,24,18,19,16,10,90,72,50,29.94,29.60,5,1,13,0.00
2013-2-4,30,24,20,16,6,-2,75,49,27,29.78,29.59,15,8,29,0.00
2013-2-5,29,21,12,15,6,0,74,52,35,29.93,29.78,7,1,12,0.00
2013-2-6,38,28,21,24,16,0,89,64,34,30.20,29.82,12,3,19,0.01
2013-2-7,27,20,14,6,-4,-9,54,35,21,30.43,30.20,8,2,15,0.00
2013-2-8,28,19,16,27,14,6,95,83,47,30.41,29.60,8,3,25,0.00
2013-2-9,22,18,13,18,12,2,90,79,58,30.06,29.51,14,8,30,0.00
2013-2-10,38,22,9,7,1,-4,61,43,22,30.28,30.05,8,2,15,0.11
2013-2-11,39,26,12,38,21,1,98,81,54,30.25,29.49,4,0,11,0.27
2013-2-12,44,38,34,34,29,26,98,70,48,29.74,29.46,14,7,28,0.04
2013-2-13,42,34,27,27,23,20,83,64,42,29.75,29.62,7,2,16,0.00
2013-2-14,42,34,28,26,22,18,87,62,40,29.88,29.59,6,1,14,0.00
2013-2-15,52,37,25,34,28,21,89,72,43,29.88,29.78,5,1,19,0.00
2013-2-16,40,34,29,32,26,16,94,73,46,29.85,29.63,6,1,15,0.02
2013-2-17,31,22,16,18,9,0,89,61,37,29.63,29.22,19,11,40,0.00
2013-2-18,31,22,14,3,-2,-7,54,36,19,30.01,29.50,18,12,38,0.00
2013-2-19,41,33,21,40,18,-5,97,58,28,30.03,29.46,6,2,14,0.32
2013-2-20,40,33,27,39,21,13,98,63,44,29.64,29.40,15,8,32,0.00
2013-2-21,29,26,22,14,11,7,66,54,42,30.07,29.61,14,7,27,0.00
2013-2-22,42,30,19,24,19,14,83,65,41,30.29,30.07,5,1,17,0.00
2013-2-23,38,34,29,34,28,23,93,81,68,30.24,29.86,3,1,12,0.05
2013-2-24,37,33,29,36,32,28,96,96,93,29.86,29.63,3,1,11,0.26
2013-2-25,41,32,27,32,29,25,96,88,66,30.14,29.80,2,0,6,0.38
2013-2-26,40,34,28,37,30,25,97,84,55,30.25,30.10,3,0,7,0.01
2013-2-27,41,38,34,38,35,29,97,90,71,30.11,29.47,10,5,22,0.89
2013-2-28,48,38,33,37,34,32,97,84,61,29.52,29.43,6,2,15,0.02
2013-3-1,41,36,32,32,29,27,91,77,61,29.58,29.44,5,1,12,0.00
2013-3-2,45,37,31,30,27,25,87,70,49,29.57,29.50,7,2,15,0.00
2013-3-3,40,34,30,34,29,24,94,82,65,29.54,29.46,6,3,18,0.03
2013-3-4,38,33,30,26,23,20,74,66,56,29.62,29.46,13,7,34,0.00
2013-3-5,44,36,29,33,28,21,85,71,56,29.98,29.63,7,2,17,0.01
2013-3-6,38,36,32,35,32,27,95,86,64,30.08,29.98,7,4,19,0.09
2013-3-7,34,32,30,31,28,25,95,86,72,30.05,29.93,6,3,19,0.13
2013-3-8,44,36,29,34,26,18,97,72,38,30.07,29.88,7,3,26,0.24
2013-3-9,42,36,26,29,24,19,92,63,43,30.27,30.07,5,2,13,0.07
2013-3-10,41,32,23,32,27,22,94,83,64,30.33,30.22,4,1,9,0.00
2013-3-11,51,41,33,38,34,30,91,77,44,30.24,30.06,3,1,12,0.00
2013-3-12,50,45,40,48,43,38,98,93,86,30.07,29.63,4,1,15,0.24
2013-3-13,51,43,34,50,33,21,99,69,39,29.68,29.59,9,4,18,0.00
2013-3-14,36,31,21,23,16,3,73,55,42,29.71,29.57,13,6,26,0.00
2013-3-15,40,28,18,27,10,2,82,49,24,29.74,29.52,13,6,30,0.00
2013-3-16,37,31,26,28,14,5,88,51,28,29.79,29.53,8,3,16,0.00
2013-3-17,36,27,20,14,7,-3,72,44,24,30.23,29.78,14,4,22,0.00
2013-3-18,36,26,13,23,9,-2,68,50,27,30.36,30.17,5,1,12,0.00
2013-3-19,33,31,25,32,30,23,98,95,67,30.17,29.55,9,3,16,0.14
2013-3-20,36,29,23,26,22,19,95,76,55,29.69,29.58,13,3,28,0.09
2013-3-21,38,30,23,26,20,14,90,68,39,29.69,29.51,5,1,12,0.24
2013-3-22,40,33,28,26,19,13,90,59,34,29.60,29.49,11,3,18,0.02
2013-3-23,42,34,26,22,19,15,71,54,35,29.65,29.50,17,8,27,0.00
2013-3-24,47,37,29,30,24,20,89,60,36,29.70,29.63,9,4,20,0.00
2013-3-25,41,35,27,33,28,23,91,78,70,29.68,29.46,5,1,12,0.00
2013-3-26,50,41,30,29,21,16,77,49,27,29.66,29.46,8,2,16,0.00
2013-3-27,54,41,31,35,25,19,86,55,30,29.77,29.63,9,3,19,0.01
2013-3-28,47,41,35,35,32,28,94,72,49,29.91,29.77,3,1,11,0.02
2013-3-29,56,44,32,37,31,27,85,61,35,29.93,29.86,7,2,14,0.00
2013-3-30,56,45,32,32,26,14,78,51,20,30.00,29.90,6,1,14,0.00
2013-3-31,55,42,25,38,26,16,83,57,27,30.03,29.72,5,2,13,0.01
2013-4-1,60,46,35,43,35,9,97,71,31,29.70,29.39,17,5,27,0.33
2013-4-2,39,34,29,14,10,4,50,37,27,29.80,29.66,18,9,31,0.00
2013-4-3,46,36,29,15,9,1,52,34,17,30.01,29.79,17,10,33,0.00
2013-4-4,56,42,29,22,14,7,52,33,17,30.17,29.91,12,5,25,0.00
2013-4-5,59,46,38,34,25,20,66,45,24,29.91,29.53,10,4,21,0.00
2013-4-6,46,36,28,21,8,0,56,33,17,30.25,29.77,14,6,25,0.00
2013-4-7,56,40,23,38,25,9,74,55,26,30.25,29.89,8,2,24,0.00
2013-4-8,66,50,42,40,37,31,90,64,28,30.02,29.84,9,3,17,0.00
2013-4-9,65,51,43,50,42,36,94,73,45,30.01,29.78,11,2,24,0.11
2013-4-10,55,48,44,47,44,40,97,86,68,29.92,29.78,4,0,14,0.46
2013-4-11,49,44,40,47,39,30,98,83,62,30.07,29.77,3,1,6,0.17
2013-4-12,42,37,35,36,31,24,96,80,48,30.13,29.74,5,3,11,0.29
2013-4-13,53,40,34,38,35,32,96,84,54,29.83,29.69,4,1,13,0.08
2013-4-14,51,45,38,38,33,28,95,65,41,30.12,29.83,11,3,18,0.00
2013-4-15,52,42,30,39,33,28,93,73,45,30.32,30.10,5,1,12,0.00
2013-4-16,67,51,37,51,41,33,89,69,44,30.32,29.93,9,3,22,0.00
2013-4-17,65,57,43,52,35,26,78,46,24,30.24,29.93,12,5,23,0.00
2013-4-18,53,46,34,41,34,30,88,64,45,30.37,30.08,7,2,14,0.00
2013-4-19,77,62,49,63,54,40,96,75,49,30.08,29.56,10,3,25,0.00
2013-4-20,68,53,43,63,39,20,95,63,31,30.10,29.50,14,7,24,0.31
2013-4-21,52,41,30,29,22,16,86,50,27,30.61,30.09,10,3,22,0.00
2013-4-22,49,39,29,35,30,22,91,70,36,30.71,30.54,7,2,13,0.00
2013-4-23,41,40,38,40,37,30,97,88,69,30.54,30.09,4,2,12,0.08
2013-4-24,66,52,41,54,46,40,97,81,60,30.09,29.70,6,3,14,0.03
2013-4-25,64,56,44,52,35,23,91,50,24,30.19,29.71,12,5,23,0.02
2013-4-26,55,46,34,39,34,28,92,65,36,30.35,30.20,5,1,11,0.00
2013-4-27,60,48,34,40,35,29,97,65,33,30.34,30.22,5,1,11,0.00
2013-4-28,61,50,35,42,37,32,94,65,36,30.26,30.16,5,1,16,0.00
2013-4-29,65,53,40,48,39,33,83,61,35,30.19,30.12,6,1,16,0.00
2013-4-30,68,54,39,37,29,10,82,45,11,30.30,30.16,5,1,13,0.00
2013-5-1,65,51,34,43,35,26,93,59,24,30.39,30.30,5,1,15,0.00
2013-5-2,73,50,38,47,39,36,93,69,27,30.42,30.30,8,1,14,0.00
2013-5-3,55,47,38,43,39,36,94,75,58,30.46,30.30,4,1,11,0.00
2013-5-4,55,45,36,45,38,34,98,78,52,30.30,30.24,4,1,13,0.00
2013-5-5,57,45,32,42,37,31,98,76,49,30.26,30.18,4,1,11,0.00
2013-5-6,60,46,32,48,42,31,98,87,58,30.21,30.09,4,1,11,0.00
2013-5-7,72,57,39,57,49,38,99,79,47,30.09,30.02,5,1,14,0.01
2013-5-8,67,59,50,60,55,49,97,87,69,30.15,30.00,4,1,13,0.02
2013-5-9,60,56,54,60,55,53,99,97,92,30.01,29.82,2,0,5,0.53
2013-5-10,74,59,53,62,56,51,99,89,62,29.87,29.81,4,1,10,0.00
2013-5-11,71,62,52,62,58,51,98,88,70,29.82,29.61,6,1,17,0.08
2013-5-12,72,61,49,62,50,27,99,73,37,29.70,29.47,14,3,21,0.05
2013-5-13,58,49,42,32,28,25,63,46,31,29.94,29.69,12,5,24,0.00
2013-5-14,59,49,38,35,30,24,83,51,27,29.96,29.86,9,2,17,0.00
2013-5-15,66,51,35,50,38,27,91,65,27,29.96,29.58,5,1,15,0.02
2013-5-16,80,64,46,52,42,34,98,54,20,29.72,29.52,13,5,32,0.01
2013-5-17,69,57,48,45,42,38,81,58,32,30.13,29.72,6,2,16,0.00
2013-5-18,68,53,40,51,45,39,96,77,37,30.22,30.13,4,1,11,0.00
2013-5-19,60,53,50,50,49,48,96,86,68,30.28,30.16,3,0,10,0.01
2013-5-20,79,64,51,64,58,50,99,83,57,30.17,29.84,6,1,11,0.06
2013-5-21,58,54,50,56,52,48,98,93,83,29.99,29.86,3,1,10,0.03
2013-5-22,57,52,50,55,51,49,99,95,79,29.96,29.81,3,0,7,0.86
2013-5-23,75,61,51,67,58,51,99,91,75,29.87,29.73,4,1,19,0.03
2013-5-24,71,63,51,68,60,50,99,92,74,29.76,29.56,6,1,14,0.66
2013-5-25,51,48,39,51,47,37,98,96,90,29.76,29.60,8,3,18,0.68
2013-5-26,58,48,39,44,39,36,97,74,51,29.97,29.57,11,6,27,0.13
2013-5-27,70,56,39,42,38,32,93,56,26,30.09,29.96,9,3,19,0.00
2013-5-28,69,55,39,50,41,32,96,66,27,30.17,30.09,4,1,13,0.00
2013-5-29,63,57,48,61,56,47,99,97,91,30.10,29.92,1,0,5,0.28
2013-5-30,87,73,56,67,62,56,99,75,40,29.98,29.90,8,2,18,0.01
2013-5-31,94,80,66,67,64,57,93,62,30,29.99,29.82,8,2,16,0.00
2013-6-1,94,82,68,69,64,55,88,58,28,29.86,29.74,7,2,15,0.00
2013-6-2,91,79,68,70,66,60,92,66,36,29.77,29.61,8,2,20,0.01
2013-6-3,79,70,61,68,62,47,97,79,47,29.77,29.65,6,1,15,0.19
2013-6-4,69,61,52,48,44,41,73,55,39,30.01,29.73,10,4,22,0.00
2013-6-5,71,60,47,52,46,38,90,64,32,30.10,30.01,5,1,15,0.00
2013-6-6,68,59,52,55,52,50,96,78,53,30.12,30.04,2,0,10,0.00
2013-6-7,57,54,52,55,53,51,98,95,86,30.05,29.79,2,0,6,1.12
2013-6-8,75,62,53,63,57,52,98,84,61,29.90,29.55,9,2,18,0.74
2013-6-9,79,67,56,59,56,52,96,70,40,30.08,29.90,8,2,17,0.00
2013-6-10,67,60,53,59,55,52,98,84,64,30.15,29.97,2,0,7,0.13
2013-6-11,61,56,54,56,54,53,98,95,79,29.98,29.51,3,1,12,1.49
2013-6-12,67,60,55,59,56,53,98,86,66,29.73,29.48,7,2,14,0.09
2013-6-13,69,58,50,58,53,49,98,85,54,29.73,29.65,2,0,7,0.13
2013-6-14,78,62,53,58,54,49,98,78,38,29.68,29.59,2,0,6,0.45
2013-6-15,77,65,54,54,48,38,94,59,27,29.85,29.68,8,2,16,0.00
2013-6-16,77,66,52,58,54,49,91,67,39,29.85,29.63,4,1,9,0.00
2013-6-17,84,68,60,68,60,55,97,77,40,29.81,29.67,7,2,15,0.44
2013-6-18,73,62,57,62,58,55,98,88,61,29.88,29.79,2,0,13,0.04
2013-6-19,73,63,53,56,51,47,98,70,41,30.07,29.84,2,0,9,0.00
2013-6-20,75,63,47,59,51,45,96,69,38,30.18,30.06,2,0,10,0.00
2013-6-21,84,70,59,63,56,47,88,65,28,30.16,30.11,5,1,11,0.00
2013-6-22,85,73,60,67,62,59,97,72,46,30.13,30.01,5,1,14,0.00
2013-6-23,91,76,63,74,66,61,93,73,53,30.06,29.87,5,1,14,0.04
2013-6-24,93,77,69,71,68,64,96,76,39,29.92,29.76,9,2,23,0.20
2013-6-25,91,78,69,72,68,66,97,76,45,29.82,29.62,6,2,17,0.25
2013-6-26,79,70,60,71,68,60,98,92,73,29.80,29.63,2,0,7,0.58
2013-6-27,68,62,58,63,60,58,99,95,83,29.81,29.72,1,0,4,0.20
2013-6-28,81,66,56,74,64,55,99,94,73,29.73,29.41,3,0,12,0.26
2013-6-29,85,75,67,71,68,65,98,81,57,29.62,29.44,5,1,16,0.00
2013-6-30,88,77,67,72,69,66,97,78,54,29.85,29.62,5,1,11,0.00
2013-7-1,81,73,69,74,70,68,99,92,74,30.00,29.84,1,0,7,1.04
2013-7-2,75,66,59,75,65,58,99,98,95,30.15,29.99,1,0,6,0.05
2013-7-3,89,70,59,75,66,58,99,87,60,30.15,30.02,2,0,6,0.01
2013-7-4,93,83,73,75,72,70,95,73,49,30.10,29.97,5,2,13,0.00
2013-7-5,94,84,75,75,73,71,92,70,50,30.06,29.91,5,2,14,0.00
2013-7-6,88,82,75,72,70,66,87,69,51,29.97,29.88,8,3,18,0.00
2013-7-7,90,78,70,72,67,64,88,70,45,29.93,29.82,4,1,10,0.00
2013-7-8,80,72,64,73,67,61,96,86,69,30.00,29.82,2,0,5,0.02
2013-7-9,73,67,64,65,63,61,96,86,72,30.04,29.98,1,0,5,0.00
2013-7-10,79,69,63,73,67,62,98,94,76,30.02,29.71,3,0,6,0.04
2013-7-11,84,75,69,74,72,67,98,92,67,29.85,29.68,8,1,19,0.76
2013-7-12,78,70,63,68,60,54,99,73,46,30.14,29.85,2,0,7,0.00
2013-7-13,81,70,62,65,61,56,96,76,44,30.25,30.13,2,0,5,0.00
2013-7-14,89,76,66,73,70,65,99,82,56,30.22,30.11,3,0,8,0.00
2013-7-15,90,79,68,75,71,67,99,78,51,30.12,30.00,4,0,13,0.00
2013-7-16,95,78,67,72,68,64,91,71,43,30.08,30.02,1,0,6,0.00
2013-7-17,94,80,67,74,70,66,98,75,43,30.09,29.88,4,0,10,0.03
2013-7-18,88,76,71,73,70,68,98,83,57,29.93,29.86,3,0,10,0.05
2013-7-19,95,83,69,76,72,69,99,74,45,29.86,29.60,9,2,20,0.01
2013-7-20,91,82,73,76,68,64,75,64,50,29.71,29.56,8,2,25,0.00
2013-7-21,77,71,64,66,63,55,95,77,51,29.93,29.71,2,0,6,0.00
2013-7-22,79,70,65,68,66,63,98,88,67,29.97,29.83,1,0,5,0.00
2013-7-23,73,69,67,73,68,66,99,97,90,29.83,29.47,0,0,3,1.50
2013-7-24,84,74,63,74,66,53,99,79,56,29.89,29.51,7,1,15,0.02
2013-7-25,67,62,59,60,54,49,98,77,64,30.05,29.88,2,0,9,0.10
2013-7-26,74,66,60,66,63,60,98,91,73,30.01,29.84,5,1,14,0.06
2013-7-27,85,71,61,68,62,58,93,75,44,29.96,29.89,6,2,12,0.00
2013-7-28,73,67,64,67,65,62,98,92,82,29.96,29.92,0,0,4,0.01
2013-7-29,76,69,64,68,66,63,99,92,76,29.97,29.88,2,0,7,0.01
2013-7-30,81,70,60,67,60,53,99,74,40,30.01,29.94,7,1,14,0.00
2013-7-31,80,68,56,62,59,54,98,75,43,30.05,29.96,2,0,10,0.00
2013-8-1,80,69,58,66,62,57,99,81,57,29.97,29.80,5,1,15,0.01
2013-8-2,82,71,64,69,62,56,99,78,43,29.81,29.68,5,1,13,0.39
2013-8-3,80,70,61,63,59,56,94,69,46,29.77,29.67,8,2,17,0.00
2013-8-4,78,68,59,63,56,52,85,68,43,29.79,29.68,7,2,14,0.00
2013-8-5,76,64,53,54,48,41,89,60,30,29.96,29.79,9,3,23,0.00
2013-8-6,76,62,46,55,49,44,96,67,35,30.08,29.96,2,0,8,0.00
2013-8-7,77,65,51,62,56,50,98,75,42,30.11,30.03,3,0,11,0.00
2013-8-8,84,73,62,70,65,54,96,77,62,30.05,29.91,5,1,13,0.06
2013-8-9,74,72,68,72,70,68,99,94,85,29.94,29.64,5,1,13,1.60
2013-8-10,81,72,58,71,61,51,99,72,36,29.94,29.69,10,3,23,0.01
2013-8-11,79,66,52,60,54,51,97,70,38,29.99,29.91,7,1,14,0.00
2013-8-12,81,68,56,62,57,53,98,71,41,29.94,29.83,5,1,13,0.00
2013-8-13,74,67,62,67,64,59,98,89,75,29.84,29.61,1,0,4,0.00
2013-8-14,74,66,60,64,55,50,99,71,45,29.85,29.58,11,4,22,0.01
2013-8-15,76,64,52,56,52,48,90,67,41,30.02,29.85,7,2,14,0.00
2013-8-16,79,65,52,59,54,50,95,72,42,30.11,30.01,6,1,15,0.00
2013-8-17,77,65,54,61,56,53,98,76,48,30.21,30.10,2,0,9,0.00
2013-8-18,81,67,54,66,60,53,98,79,56,30.20,30.00,2,0,11,0.00
2013-8-19,81,70,59,64,61,58,95,73,51,30.00,29.85,6,1,12,0.00
2013-8-20,86,73,62,68,63,60,93,73,43,30.00,29.89,4,0,9,0.00
2013-8-21,89,74,60,68,64,60,98,75,44,30.06,29.93,4,0,10,0.00
2013-8-22,89,76,64,70,66,62,92,72,45,29.94,29.73,6,1,13,0.00
2013-8-23,82,71,61,68,60,50,87,69,37,30.05,29.73,4,1,12,0.00
2013-8-24,76,63,50,53,48,43,93,63,34,30.25,30.05,2,0,6,0.00
2013-8-25,78,64,50,58,52,48,96,68,38,30.29,30.08,2,0,7,0.00
2013-8-26,81,72,63,67,62,55,89,73,60,30.08,29.77,8,2,15,0.01
2013-8-27,82,73,63,68,65,61,96,79,55,29.82,29.75,1,0,7,0.00
2013-8-28,80,68,59,69,63,58,99,87,60,29.92,29.79,2,0,9,0.00
2013-8-29,66,64,62,65,61,58,98,89,77,30.02,29.89,1,0,11,0.02
2013-8-30,84,71,61,68,63,58,94,78,55,29.96,29.72,5,1,11,0.00
2013-8-31,81,74,68,73,69,65,95,85,74,29.76,29.69,4,0,8,0.02
2013-9-1,88,75,70,72,70,67,98,86,56,29.80,29.70,3,1,10,0.02
2013-9-2,72,70,69,71,70,68,99,99,97,29.80,29.65,1,0,8,1.42
2013-9-3,80,72,64,70,15,-100,99,56,67,29.71,29.62,7,1,13,0.01
2013-9-4,80,69,59,60,57,54,91,69,42,29.82,29.70,8,3,17,0.00
2013-9-5,69,61,47,60,54,45,92,79,61,30.07,29.77,2,0,9,0.00
2013-9-6,69,55,41,50,43,38,98,70,36,30.17,30.00,5,1,14,0.00
2013-9-7,78,62,47,59,51,45,93,68,37,30.00,29.76,5,1,11,0.00
2013-9-8,71,63,47,59,50,41,86,64,41,30.01,29.65,10,2,21,0.00
2013-9-9,70,55,40,50,44,38,97,69,38,30.16,30.01,5,1,12,0.00
2013-9-10,73,65,54,69,61,49,95,87,73,30.07,29.95,4,0,9,0.05
2013-9-11,94,80,69,75,71,68,99,76,47,29.97,29.83,9,1,18,0.08
2013-9-12,86,72,66,74,69,65,98,91,65,29.88,29.60,6,0,12,0.97
2013-9-13,75,66,57,69,26,-100,99,73,73,29.67,29.50,2,0,10,0.95
2013-9-14,67,59,50,56,54,48,95,83,64,29.96,29.67,7,1,15,0.01
2013-9-15,71,58,48,54,49,45,96,76,43,30.07,29.96,5,1,12,0.01
2013-9-16,67,57,46,56,50,36,92,78,57,30.19,29.91,4,1,14,0.01
2013-9-17,65,51,37,49,40,35,95,70,38,30.35,30.18,2,0,15,0.00
2013-9-18,72,57,42,53,46,41,97,71,35,30.24,30.05,4,1,10,0.00
2013-9-19,77,59,47,54,50,45,96,74,35,30.06,29.96,1,0,5,0.00
2013-9-20,73,59,47,58,53,46,99,83,50,30.02,29.94,1,0,6,0.00
2013-9-21,76,62,48,63,57,47,99,87,60,29.95,29.67,3,0,15,0.01
2013-9-22,71,64,52,66,56,43,96,79,50,29.73,29.52,8,3,17,0.41
2013-9-23,62,52,42,45,41,39,88,68,49,29.91,29.73,8,3,18,0.00
2013-9-24,64,50,39,48,42,37,94,76,45,29.90,29.74,7,1,16,0.00
2013-9-25,63,52,41,51,46,40,98,82,55,29.91,29.79,1,0,9,0.00
2013-9-26,64,56,47,51,49,45,93,77,57,30.06,29.91,1,0,7,0.00
2013-9-27,70,58,50,54,51,48,96,77,51,30.18,30.05,2,0,7,0.00
2013-9-28,72,56,46,56,51,46,99,84,52,30.26,30.18,1,0,6,0.00
2013-9-29,66,52,43,56,47,42,99,86,47,30.21,30.06,1,0,7,0.01
2013-9-30,64,51,42,56,47,41,99,88,54,30.06,29.90,2,0,6,0.01
2013-10-1,77,58,42,58,50,42,99,81,41,29.90,29.76,2,0,6,0.00
2013-10-2,79,65,54,62,57,52,97,77,49,29.85,29.72,9,2,17,0.01
2013-10-3,76,63,54,58,53,45,94,72,34,29.99,29.85,4,1,10,0.00
2013-10-4,69,58,49,57,54,48,98,86,59,30.01,29.96,1,0,4,0.00
2013-10-5,65,59,57,57,54,51,97,84,66,30.06,29.98,0,0,4,0.00
2013-10-6,57,55,53,56,52,45,99,91,69,30.19,30.05,1,0,5,0.19
2013-10-7,73,30,56,68,-30,-100,99,41,80,30.09,29.73,3,-511,15,0.06
2013-10-8,66,13,58,44,-71,-100,57,9,39,30.31,29.80,6,-753,15,0.00
2013-10-9,61,12,53,47,-69,-100,79,13,53,30.41,30.30,1,-769,5,0.00
2013-10-10,-200,0,200,-100,-100,-100,0,0,100,30.30,30.12,0,-952,0,0.00
2013-10-11,69,13,62,53,-70,-100,71,12,46,30.12,30.04,2,-785,3,0.00
2013-10-12,-200,0,200,-100,-100,-100,0,0,100,30.33,30.08,0,-980,0,0.00
2013-10-13,61,21,38,47,-40,-100,95,33,54,30.39,30.32,1,-555,3,0.00
2013-10-14,65,48,32,50,42,32,99,82,44,30.34,30.16,3,0,9,0.00
2013-10-15,62,56,52,54,52,50,97,86,68,30.19,30.11,1,0,3,0.00
2013-10-16,62,56,50,55,53,49,99,91,69,30.11,29.83,1,0,4,0.00
2013-10-17,74,60,53,57,53,48,99,80,44,29.84,29.62,8,1,14,0.00
2013-10-18,68,60,50,61,50,36,99,71,47,29.81,29.51,11,4,22,0.08
2013-10-19,67,54,40,49,42,36,90,65,39,29.88,29.67,4,1,12,0.00
2013-10-20,62,54,47,49,40,32,92,60,36,29.92,29.60,12,4,22,0.00
2013-10-21,67,51,36,49,40,33,92,68,39,30.01,29.90,7,1,11,0.00
2013-10-22,63,53,45,52,46,37,92,76,58,29.91,29.61,6,1,13,0.00
2013-10-23,52,45,33,37,34,31,93,69,47,29.70,29.49,4,0,7,0.00
2013-10-24,53,45,39,35,30,24,81,57,36,29.77,29.52,11,4,22,0.00
2013-10-25,50,40,31,33,29,24,86,65,41,30.04,29.77,11,2,18,0.00
2013-10-26,55,42,26,34,28,21,93,61,29,30.04,29.78,9,1,19,0.00
2013-10-27,55,47,38,40,34,26,89,63,40,29.95,29.71,10,3,19,0.04
2013-10-28,58,43,33,36,30,23,79,61,40,30.26,29.95,12,3,22,0.00
2013-10-29,50,34,24,28,24,17,89,69,28,30.37,30.26,3,0,7,0.00
2013-10-30,49,36,28,36,31,25,94,81,59,30.28,30.12,7,1,13,0.01
2013-10-31,60,45,29,59,43,28,98,94,83,30.15,29.70,3,0,11,0.08
2013-11-1,72,65,58,61,56,52,95,73,56,29.70,29.30,18,5,31,0.02
2013-11-2,66,55,44,52,44,39,90,71,38,29.63,29.50,6,1,14,0.00
2013-11-3,50,41,31,46,31,18,94,68,40,30.34,29.63,6,1,12,0.09
2013-11-4,44,32,24,22,18,13,81,57,30,30.63,30.34,3,0,12,0.00
2013-11-5,49,36,24,34,27,18,83,70,46,30.64,30.43,2,0,8,0.00
2013-11-6,61,50,38,48,40,32,80,68,46,30.43,29.93,5,1,13,0.00
2013-11-7,64,54,40,56,48,32,93,81,68,29.93,29.58,8,2,22,0.10
2013-11-8,47,39,33,34,27,23,81,62,46,29.97,29.71,10,4,23,0.00
2013-11-9,43,39,33,27,22,20,62,52,40,30.10,29.96,11,4,23,0.00
2013-11-10,50,44,38,43,37,27,96,77,59,29.96,29.64,10,2,20,0.08
2013-11-11,50,44,39,33,27,23,69,51,35,29.99,29.71,14,5,24,0.00
2013-11-12,48,35,27,36,21,14,86,56,50,30.08,29.78,10,4,25,0.02
2013-11-13,35,29,23,14,12,9,64,50,35,30.18,30.04,10,4,21,0.00
2013-11-14,51,39,28,28,21,14,60,50,38,30.03,29.92,11,3,22,0.00
2013-11-15,58,42,28,31,22,16,70,48,22,30.09,30.00,6,0,14,0.00
2013-11-16,59,41,30,36,28,21,93,63,26,30.24,30.08,2,0,5,0.00
2013-11-17,52,43,31,52,42,29,99,96,90,30.25,29.79,1,0,6,0.10
2013-11-18,64,56,48,61,48,31,99,75,41,29.79,29.41,11,3,20,0.20
2013-11-19,48,38,31,31,21,15,62,49,37,30.17,29.53,13,7,27,0.00
2013-11-20,42,32,24,16,13,10,64,46,27,30.54,30.17,6,2,17,0.00
2013-11-21,46,32,19,25,16,8,82,56,22,30.56,30.27,7,1,13,0.00
2013-11-22,43,39,36,41,36,24,98,87,61,30.26,29.71,1,0,4,0.09
2013-11-23,44,38,30,44,26,12,99,64,34,29.80,29.66,14,7,31,0.01
2013-11-24,30,23,19,19,3,-6,75,43,27,30.04,29.66,18,12,40,0.00
2013-11-25,30,23,17,12,-4,-12,47,30,16,30.24,30.05,14,6,28,0.00
2013-11-26,36,32,28,32,23,11,95,68,44,30.23,30.00,5,1,13,0.12
2013-11-27,61,50,34,60,50,32,99,98,95,29.98,29.16,9,4,29,1.27
2013-11-28,37,30,22,29,14,4,74,51,33,30.33,29.32,15,8,32,0.00
2013-11-29,30,23,15,10,6,0,68,49,28,30.66,30.33,8,2,21,0.00
2013-11-30,32,22,10,21,14,6,84,70,54,30.71,30.34,1,0,9,0.00
2013-12-1,38,34,31,36,31,22,98,88,68,30.32,29.93,1,0,11,0.17
2013-12-2,39,37,35,38,36,34,98,96,91,29.92,29.83,5,1,16,0.01
2013-12-3,47,38,31,39,34,28,97,88,65,29.84,29.75,3,1,10,0.00
2013-12-4,40,34,28,29,26,23,88,73,58,30.11,29.83,8,2,18,0.00
2013-12-5,46,37,27,45,35,24,98,92,84,30.14,29.82,1,0,5,0.03
2013-12-6,48,43,33,47,40,31,99,90,66,30.06,29.76,8,2,19,0.08
2013-12-7,38,32,23,32,24,15,96,75,48,30.35,29.99,12,2,22,0.11
2013-12-8,29,26,20,19,15,11,77,64,46,30.50,30.35,6,1,14,0.00
2013-12-9,40,32,26,39,29,13,98,87,55,30.42,29.78,5,1,15,0.24
2013-12-10,34,31,24,32,27,12,98,86,59,29.86,29.68,10,3,20,0.01
2013-12-11,32,26,18,18,14,11,83,62,43,30.08,29.87,12,5,22,0.00
2013-12-12,24,18,10,17,5,-6,79,57,29,30.16,29.94,10,2,20,0.00
2013-12-13,26,18,10,18,7,-5,78,60,45,30.31,29.87,12,4,23,0.00
2013-12-14,20,12,6,17,2,-8,90,64,35,30.53,30.16,3,0,11,0.00
2013-12-15,32,23,15,32,21,12,98,92,86,30.13,29.33,7,2,22,0.00
2013-12-16,26,20,10,18,11,0,90,68,35,30.10,29.61,16,4,33,0.00
2013-12-17,18,10,-3,13,3,-9,87,73,53,30.19,29.88,6,1,14,0.00
2013-12-18,33,24,14,22,18,10,88,75,53,29.94,29.77,10,3,22,0.05
2013-12-19,41,32,25,24,21,18,75,66,47,30.00,29.84,9,2,19,0.05
2013-12-20,46,37,31,36,30,24,94,76,58,30.02,29.80,4,0,14,0.08
2013-12-21,57,46,33,46,39,31,92,78,58,29.84,29.73,3,0,12,0.00
2013-12-22,47,34,30,44,34,29,97,96,89,29.95,29.75,4,0,14,0.18
2013-12-23,35,32,29,34,31,29,98,98,97,30.02,29.89,2,0,6,0.41
2013-12-24,34,30,24,34,21,9,98,69,49,30.09,29.95,10,2,20,0.00
2013-12-25,24,16,9,12,3,-5,74,56,40,30.45,30.09,14,2,28,0.00
2013-12-26,29,21,14,26,17,8,92,84,73,30.42,29.98,4,0,9,0.00
2013-12-27,33,26,19,21,18,15,89,74,54,30.15,30.07,10,2,19,0.01
2013-12-28,45,34,23,30,24,18,81,68,48,30.10,29.86,8,2,18,0.05
2013-12-29,40,34,28,38,30,24,97,84,67,29.92,29.36,6,1,17,0.82
2013-12-30,41,31,13,35,23,-3,96,73,44,30.09,29.40,12,4,22,0.01
2013-12-31,21,13,7,10,0,-5,75,56,32,30.08,29.94,4,1,11,0.00
2014-1-1,25,19,15,9,5,2,76,56,40,30.29,30.05,13,4,23,0.00
2014-1-2,18,7,-2,11,1,-8,84,78,64,30.28,29.82,6,2,23,0.00